Old Res Weather

Lexington, Massachusetts, USA

55°F
10/26/2021 9:54am 
  • Lexington Conditions: Rain, Mist, Mostly cloudy
  • Temperature: 55.2°F / 12.9°CWarmer 1.1°F than last hour.
  • Dew Point: 54.7°FIncreased 1.5°Fsince last hour.
  • Relative Humidity: 98%Increased 1.0% since last hour.
  • Wind: Calm, 10-min avg: Calm, gust: 2 mph
  • Barometer: 29.69 inFalling 0.03  inHg/hr Falling Slowly
  • Visibility: 2 miles
  • Rain Today: 1.23 in
  • UV Index: $VPuv None
  •   
Southeast Middlesex County, MA - High Wind Warning - Flood Watch
 - SEE ALL NEARBY ALERTS -

Regional Weather Roundup
for Boston / Norton, MA

        
000
ASUS41 KBOX 261304
RWRBOX

REGIONAL WEATHER ROUNDUP
NATIONAL WEATHER SERVICE BOSTON/NORTON MA
900 AM EDT TUE OCT 26 2021

NOTE:  "FAIR" INDICATES FEW OR NO CLOUDS BELOW 12,000 FEET WITH NO 
SIGNIFICANT WEATHER AND/OR OBSTRUCTIONS TO VISIBILITY.

MAZALL-261400-
EASTERN MASSACHUSETTS
  
CITY           SKY/WX    TMP DP  RH WIND       PRES   REMARKS
BOSTON         LGT RAIN  58  58 100 NE16      29.70S VSB 1/2          
BEVERLY        LGT RAIN  58  56  93 NE16G25   29.71F FOG              
LAWRENCE       RAIN      52  51  97 NE20      29.75F FOG              
BEDFORD        RAIN      54  53  97 NE10G24   29.71S FOG              
BLUE HILL      NOT AVBL                                               
NORWOOD        CLOUDY    60  58  92 NE6       29.68S FOG              
MARSHFIELD     PTSUNNY   63  61  94 E9G16     29.67F                  
PLYMOUTH       CLOUDY    64  61  90 E14       29.66F                  
TAUNTON        CLOUDY    63  62  97 NE3       29.64F                  
NEW BEDFORD    CLOUDY    65  62  90 E12       29.63F                  
$$

MAZALL-261400-
CAPE COD AND THE ISLANDS
  
CITY           SKY/WX    TMP DP  RH WIND       PRES   REMARKS
FALMOUTH       PTSUNNY   64  61  88 E17G28    29.65F                  
HYANNIS        CLOUDY    64  62  93 E10G20    29.63F                  
CHATHAM        CLOUDY    63  60  90 E13G22    29.67F                  
PROVINCETOWN   CLOUDY    63  61  93 E9        29.69F                  
NANTUCKET      CLOUDY    65  59  81 E22G29    29.63F                  
MARTHAS VNYRD  CLOUDY    65  61  87 E16G25    29.62F                  
$$
 
MAZALL-261400-
CENTRAL AND WESTERN MASSACHUSETTS
  
CITY           SKY/WX    TMP DP  RH WIND       PRES   REMARKS
WORCESTER      LGT RAIN  48  47  96 NE15G22   29.68F FOG              
FITCHBURG      HVY RAIN  49  47  93 NE9       29.74F FOG              
ORANGE         LGT RAIN  50  46  86 NE13G22   29.70F                  
SPRINGFIELD    CLOUDY    52  49  90 NE13      29.63F                  
WESTFIELD      RAIN      50  48  93 N12       29.63F                  
NORTH ADAMS    CLOUDY    51  46  83 E9G20     29.66F                  
PITTSFIELD     LGT RAIN  48  46  93 NE12G20   29.62F                  
$$
 
RIZALL-261400-
RHODE ISLAND
  
CITY           SKY/WX    TMP DP  RH WIND       PRES   REMARKS
PROVIDENCE     LGT RAIN  63  63 100 NE8       29.64S FOG              
NEWPORT        CLOUDY    64  61  90 E12G21    29.61F                  
BLOCK ISLAND   LGT RAIN  62  59  90 E18G28    29.57F FOG              
SMITHFIELD     LGT RAIN  57  57 100 NE8       29.66S VSB 1/4          
WESTERLY       RAIN      63  61  93 E14G22    29.58F FOG              
$$
 
CTZALL-261400-
CONNECTICUT
  
CITY           SKY/WX    TMP DP  RH WIND       PRES   REMARKS
BRADLEY INTL   LGT RAIN  52  51  97 NE15      29.62F                  
HARTFORD       LGT RAIN  55  52  89 N12       29.58F                  
BRIDGEPORT     HVY RAIN  59  57  93 NE24G33   29.46F FOG              
DANBURY        HVY RAIN  55  52  89 NE10G20   29.50F FOG              
GROTON         RAIN      61  60  97 E20G28    29.55F FOG              
NEW HAVEN      RAIN      64  62  93 E26G33    29.49F FOG              
CHESTER        NOT AVBL                                               
MERIDEN        HVY RAIN  53  50  89 N12       29.56F FOG              
WILLIMANTIC    LGT RAIN  54  53  97 NE14      29.61F                  
OXFORD         RAIN      52  51  97 NE21G28   29.53F FOG              
$$

MEZ002-015-021-024-NHZ003-005-008-011-012-014-VTZ005-008-261400-
NORTHERN NEW ENGLAND
  
CITY           SKY/WX    TMP DP  RH WIND       PRES   REMARKS
PORTLAND ME    CLOUDY    46  45  96 NE14G23   29.85F                  
BANGOR ME      CLOUDY    47  42  83 NE13      29.97S                  
CONCORD NH     CLOUDY    47  44  90 CALM      29.79S                  
MANCHESTER NH  LGT RAIN  50  46  86 NE15G24   29.75F FOG              
NASHUA NH      LGT RAIN  49  49 100 NE7G16    29.75F FOG              
PORTSMOUTH NH  NOT AVBL                                               
JAFFREY NH     LGT RAIN  47  44  90 VRB7      29.74F                  
KEENE NH       PTSUNNY   48  45  89 VRB5      29.73F                  
BURLINGTON VT  RAIN      49  47  93 N6        29.80F FOG              
MT. WASHINGTON FOG       39  39 100 S47G56      N/A  VSB 0   WCI  25  
$$

NYZ052-076-261400-
EASTERN NEW YORK
  
CITY           SKY/WX    TMP DP  RH WIND       PRES   REMARKS
ALBANY         LGT RAIN  50  49  96 N8        29.67S FOG              
NEW YORK CITY  LGT RAIN  62  59  90 NE18      29.39F FOG              
$$
 
ANZALL-261400-
MARINE OBSERVATIONS
  
STATION/POSITION TIME  TEMP    WIND        PRES    VSBY  WAVE
                       AIR SEA DIR/SP/G                  HT/PER
                 (UTC) (F)     (DEG/KT/KT) (MB)    (MI)  (FT/S)
BOSTON BUOY      1240      59   80/ 17/ 21 1005.9S
BUZZARDS BAY     1200          100/ 21/ 23 1003.7F
NANTUCKET SOUND  1240   64 63  100/ 19/ 23 1003.5F
MASS BAY-STELLWA 1204   57      70/ 21/ 25 1004.9F  1 7/8  7/ 6
ISLE OF SHOALS   1200   54      40/ 31/ 37 1006.8F
S OF BLOCK IS    1226      64                N/A           8/ 7
$$

......................KEY.........................
  SKY/WX - SKY CONDITION/PRESENT WEATHER
  TMP    - TEMPERATURE IN FAHRENHEIT
  DWPT   - DEWPOINT IN FAHRENHEIT
  RH     - RELATIVE HUMIDITY IN PERCENT
  WIND   - DIRECTION AND SPEED IN MPH
  PRES   - MEAN SEA LEVEL PRESSURE IN INCHES OF HG
  WCI    - WIND CHILL INDEX
  VSB    - VISIBILITY IN MILES
  HX     - HEAT INDEX
  TC     - TEMPERATURE IN CELSIUS
  VRB    - VARIABLE WIND DIRECTION
  N/A    - NOT AVAILABLE
  
      

Other recent Regional Weather Roundups

Tue Oct 26, 8:04am

Tue Oct 26, 7:04am

Tue Oct 26, 6:04am

Tue Oct 26, 5:04am

Tue Oct 26, 4:04am

Tue Oct 26, 3:04am

Tue Oct 26, 2:04am

Tue Oct 26, 1:04am

Tue Oct 26, 12:04am

Mon Oct 25, 11:04pm

Mon Oct 25, 10:05pm

Mon Oct 25, 9:04pm

Mon Oct 25, 8:04pm

Mon Oct 25, 7:04pm

Mon Oct 25, 6:04pm

Mon Oct 25, 5:04pm

Mon Oct 25, 4:04pm

Mon Oct 25, 3:04pm

Mon Oct 25, 2:04pm

Mon Oct 25, 1:05pm

Mon Oct 25, 12:04pm

Mon Oct 25, 11:05am

Mon Oct 25, 10:04am

Mon Oct 25, 9:04am

Mon Oct 25, 8:04am

Mon Oct 25, 7:04am

Mon Oct 25, 6:04am

Mon Oct 25, 5:04am

Mon Oct 25, 4:04am

Mon Oct 25, 3:04am

Mon Oct 25, 2:04am

Mon Oct 25, 1:04am

Mon Oct 25, 12:05am

Sun Oct 24, 11:04pm

Sun Oct 24, 10:04pm

Sun Oct 24, 9:04pm

Sun Oct 24, 8:04pm

Sun Oct 24, 7:04pm

Sun Oct 24, 6:04pm

Sun Oct 24, 5:04pm

Sun Oct 24, 4:04pm

Sun Oct 24, 3:04pm

Sun Oct 24, 2:04pm

Sun Oct 24, 1:04pm

Sun Oct 24, 12:05pm

Sun Oct 24, 11:05am

Sun Oct 24, 10:04am

Sun Oct 24, 9:04am

Sun Oct 24, 8:04am

Sun Oct 24, 7:04am

Sun Oct 24, 6:04am

Sun Oct 24, 5:04am

Sun Oct 24, 4:04am

Sun Oct 24, 3:04am

Sun Oct 24, 2:04am

Sun Oct 24, 1:04am

Sun Oct 24, 12:04am

Sat Oct 23, 11:04pm

Sat Oct 23, 10:04pm

Sat Oct 23, 9:04pm

Sat Oct 23, 8:04pm

Sat Oct 23, 7:05pm

Sat Oct 23, 6:04pm

Sat Oct 23, 5:04pm

Sat Oct 23, 4:04pm

Sat Oct 23, 3:04pm

Sat Oct 23, 2:05pm

Sat Oct 23, 1:05pm

Sat Oct 23, 12:04pm

Sat Oct 23, 11:04am

Sat Oct 23, 10:04am

Sat Oct 23, 9:04am

Sat Oct 23, 8:04am

Sat Oct 23, 7:04am

Sat Oct 23, 6:04am

Sat Oct 23, 5:04am

Sat Oct 23, 4:04am

Sat Oct 23, 3:04am

Sat Oct 23, 2:04am

Sat Oct 23, 1:04am

Sat Oct 23, 12:05am

Fri Oct 22, 11:04pm

Fri Oct 22, 10:04pm

Fri Oct 22, 9:04pm

Fri Oct 22, 8:04pm

Fri Oct 22, 7:04pm

Fri Oct 22, 6:04pm

Fri Oct 22, 5:04pm

Fri Oct 22, 4:04pm

Fri Oct 22, 3:05pm

Fri Oct 22, 2:04pm

Fri Oct 22, 1:05pm

Fri Oct 22, 12:04pm

Fri Oct 22, 11:04am

Fri Oct 22, 10:04am

Fri Oct 22, 9:04am

Fri Oct 22, 8:04am

Fri Oct 22, 7:04am

Fri Oct 22, 6:04am

Fri Oct 22, 5:04am

Fri Oct 22, 4:04am

Fri Oct 22, 3:04am

Fri Oct 22, 2:04am

Fri Oct 22, 1:04am

Fri Oct 22, 12:04am

Thu Oct 21, 11:04pm

Thu Oct 21, 10:05pm

Thu Oct 21, 9:04pm

Thu Oct 21, 8:04pm

Thu Oct 21, 7:04pm

Thu Oct 21, 6:04pm

Thu Oct 21, 5:04pm

Thu Oct 21, 4:04pm

Thu Oct 21, 3:04pm

Thu Oct 21, 2:04pm

Thu Oct 21, 1:05pm

Thu Oct 21, 12:04pm

Thu Oct 21, 11:04am

Thu Oct 21, 10:05am

Thu Oct 21, 9:04am

Thu Oct 21, 8:04am

Thu Oct 21, 7:04am

Thu Oct 21, 6:04am

Thu Oct 21, 5:04am

Thu Oct 21, 4:04am

Thu Oct 21, 3:04am

Thu Oct 21, 2:04am

Thu Oct 21, 1:04am

Thu Oct 21, 12:04am

Wed Oct 20, 11:04pm

Wed Oct 20, 10:04pm

Wed Oct 20, 9:04pm

Wed Oct 20, 8:04pm

Wed Oct 20, 7:04pm

Wed Oct 20, 6:04pm

Wed Oct 20, 5:05pm

Wed Oct 20, 4:04pm

Wed Oct 20, 3:04pm

Wed Oct 20, 2:05pm

Wed Oct 20, 1:05pm

Wed Oct 20, 12:04pm

Wed Oct 20, 11:04am

Wed Oct 20, 10:05am

Wed Oct 20, 9:08am

Wed Oct 20, 8:04am

Wed Oct 20, 7:04am

Wed Oct 20, 6:04am

Wed Oct 20, 5:04am

Wed Oct 20, 4:04am

Wed Oct 20, 3:04am

Wed Oct 20, 2:04am

Wed Oct 20, 1:04am

Wed Oct 20, 12:04am

Tue Oct 19, 11:04pm

Tue Oct 19, 10:04pm

Tue Oct 19, 9:04pm

Tue Oct 19, 8:04pm

Tue Oct 19, 7:04pm

Tue Oct 19, 6:04pm

Tue Oct 19, 5:04pm

Tue Oct 19, 4:04pm

Tue Oct 19, 3:04pm

Tue Oct 19, 2:04pm

Tue Oct 19, 1:04pm

Tue Oct 19, 12:04pm

Tue Oct 19, 11:04am

Tue Oct 19, 10:04am

Meta data:

ID: b7072dae-bdce-4b19-bc96-e4f335afebda
Link: https://api.weather.gov/products/b7072dae-bdce-4b19-bc96-e4f335afebda